Regional Weather Roundup
Issued by NWS Albany, NY

Home | Current Version | Previous Version | Text Only | Print | Product List | Glossary On
Versions: 1 2 3 4 5 6 7 8 9 10 11 12 13 14 15 16 17 18 19 20 21 22 23 24 25 26 27 28 29 30 31 32 33 34 35 36 37 38 39 40 41 42 43 44 45 46 47 48
000
ASUS41 KALY 140410
RWRALY

NEW YORK STATE HOURLY WEATHER ROUNDUP
NATIONAL WEATHER SERVICE ALBANY NY
1200 AM EDT MON JUL 14 2014

NOTE: "FAIR" INDICATES FEW OR NO CLOUDS BELOW 12,000 FEET WITH NO
SIGNIFICANT WEATHER AND/OR NO OBSTRUCTIONS TO VISIBILITY.

NYZ032-033-038>043-046>054-057>066-NYZ062>081-140500-
EAST


CITY           SKY/WX    TMP DP  RH WIND       PRES   REMARKS
ALBANY         LGT RAIN  73  69  87 S9        29.86F
GLENS FALLS    CLOUDY    71  70  96 S9        29.84S
POUGHKEEPSIE   LGT RAIN  75  72  90 CALM      29.87S
NEWBURGH       LGT RAIN  75  73  94 SE7       29.91R
MONTGOMERY     LGT RAIN  75  72  90 SW9G18    29.90R FOG
WHITE PLAINS   TSTM      74  69  85 S8        29.92S
ISLIP          CLOUDY    76  68  76 SW20G25   29.93F
NEW YORK CITY  TSTM      75  68  78 NW20G30   29.95R
$$

NYZ005>009-017-018-044>046-055-056-140500-
CENTRAL


CITY           SKY/WX    TMP DP  RH WIND       PRES   REMARKS
FULTON         PTCLDY    71  67  87 CALM      29.86R
SYRACUSE       PTCLDY    72  67  84 S5        29.86R
ROME           PTCLDY    67  67 100 E3        29.87F FOG
ELMIRA         FOG       69  69 100 CALM      29.90S VSB 1/4
BINGHAMTON     PTCLDY    68  67  96 W5        29.92F FOG
$$

NYZ026>034-041>043-140500-
NORTH


CITY           SKY/WX    TMP DP  RH WIND       PRES   REMARKS
WATERTOWN      CLEAR     68  63  84 S3        29.84R
FORT DRUM      NOT AVBL
MASSENA        CLEAR     68  67  96 SW7       29.80R
SARANAC LAKE   MOCLDY    66  64  93 SW6       29.86R
PLATTSBURGH    PTCLDY    73  66  78 S7        29.78R
$$

NYZ001>004-010>016-019>021-140500-
WEST


CITY           SKY/WX    TMP DP  RH WIND       PRES   REMARKS
NIAGARA FALLS  MOCLDY    69  66  90 S5        29.86S
BUFFALO        MOCLDY    72  68  87 SW10      29.88S
DUNKIRK        PTCLDY    70  64  81 S6        29.89S
JAMESTOWN      CLEAR     66  63  88 SW6       29.95S
WELLSVILLE     CLEAR     65  62  90 W5        29.98R
ROCHESTER      MOCLDY    72  68  87 SW7       29.87S
PENN YAN       CLEAR     69  67  93 SW6       29.90S
$$

             KEY
       WCI = WIND CHILL INDEX
       VSB = VISIBILITY
       HX  = HEAT INDEX
$$



USA.gov is the U.S. government's official web portal to all federal, state and local government web resources and services.